Time,TemperatureF,DewpointF,PressureIn,WindDirection,WindDirectionDegrees,WindSpeedMPH,WindSpeedGustMPH,Humidity,HourlyPrecipIn,Conditions,Clouds,dailyrainin,SoftwareType,DateUTC
2013-09-14 00:13:00,58.0,47.0,30.06,North,-999,0.0,-999.0,68,-99.99,,,-99.99,,2013-09-14 05:13:00,
2013-09-14 00:22:00,58.0,47.0,30.06,North,-999,0.0,-999.0,68,-99.99,,,-99.99,,2013-09-14 05:22:00,
2013-09-14 00:52:00,58.0,47.0,30.06,North,-999,0.0,-999.0,67,-99.99,,,-99.99,,2013-09-14 05:52:00,
2013-09-14 01:12:00,57.0,47.0,30.05,North,-999,0.0,-999.0,68,-99.99,,,-99.99,,2013-09-14 06:12:00,
2013-09-14 01:21:00,57.0,47.0,30.05,North,-999,0.0,-999.0,68,-99.99,,,-99.99,,2013-09-14 06:21:00,
2013-09-14 01:42:00,56.0,46.0,30.05,North,-999,0.0,-999.0,68,-99.99,,,-99.99,,2013-09-14 06:42:00,
2013-09-14 01:52:00,56.0,46.0,30.05,North,-999,0.0,-999.0,69,-99.99,,,-99.99,,2013-09-14 06:52:00,
2013-09-14 02:12:00,56.0,46.0,30.05,North,-999,0.0,-999.0,69,-99.99,,,-99.99,,2013-09-14 07:12:00,
2013-09-14 02:21:00,56.0,46.0,30.05,North,-999,0.0,-999.0,69,-99.99,,,-99.99,,2013-09-14 07:21:00,
2013-09-14 02:52:00,55.0,46.0,30.05,North,-999,0.0,-999.0,71,-99.99,,,-99.99,,2013-09-14 07:52:00,
2013-09-14 03:12:00,55.0,46.0,30.05,North,-999,0.0,-999.0,71,-99.99,,,-99.99,,2013-09-14 08:12:00,
2013-09-14 03:22:00,55.0,46.0,30.05,North,-999,0.0,-999.0,72,-99.99,,,-99.99,,2013-09-14 08:22:00,
2013-09-14 03:52:00,54.0,46.0,30.05,North,-999,0.0,-999.0,74,-99.99,,,-99.99,,2013-09-14 08:52:00,
2013-09-14 04:12:00,54.0,46.0,30.04,North,-999,0.0,-999.0,74,-99.99,,,-99.99,,2013-09-14 09:12:00,
2013-09-14 04:21:00,54.0,46.0,30.04,North,-999,0.0,-999.0,75,-99.99,,,-99.99,,2013-09-14 09:21:00,
2013-09-14 04:53:00,53.0,46.0,30.03,North,-999,0.0,-999.0,76,-99.99,,,-99.99,,2013-09-14 09:53:00,
2013-09-14 05:23:00,53.0,46.0,30.03,North,-999,0.0,-999.0,76,-99.99,,,-99.99,,2013-09-14 10:23:00,
2013-09-14 05:52:00,53.0,46.0,30.03,North,-999,0.0,-999.0,77,-99.99,,,-99.99,,2013-09-14 10:52:00,
2013-09-14 06:12:00,52.0,45.0,30.03,North,-999,0.0,-999.0,77,-99.99,,,-99.99,,2013-09-14 11:12:00,
2013-09-14 06:22:00,52.0,45.0,30.03,North,-999,0.0,-999.0,77,-99.99,,,-99.99,,2013-09-14 11:22:00,
2013-09-14 06:52:00,52.0,45.0,30.03,North,-999,0.0,-999.0,78,-99.99,,,-99.99,,2013-09-14 11:52:00,
2013-09-14 07:12:00,52.0,45.0,30.02,North,-999,0.0,-999.0,78,-99.99,,,-99.99,,2013-09-14 12:12:00,
2013-09-14 07:22:00,52.0,45.0,30.03,North,-999,0.0,-999.0,78,-99.99,,,-99.99,,2013-09-14 12:22:00,
2013-09-14 07:52:00,52.0,45.0,30.03,North,-999,0.0,-999.0,78,-99.99,,,-99.99,,2013-09-14 12:52:00,
2013-09-14 08:12:00,52.0,45.0,30.02,North,-999,0.0,-999.0,78,-99.99,,,-99.99,,2013-09-14 13:12:00,
2013-09-14 08:21:00,52.0,45.0,30.02,North,-999,0.0,-999.0,77,-99.99,,,-99.99,,2013-09-14 13:21:00,
2013-09-14 08:42:00,53.0,45.0,30.01,North,-999,0.0,-999.0,75,-99.99,,,-99.99,,2013-09-14 13:42:00,
2013-09-14 08:52:00,54.0,46.0,30.01,North,-999,0.0,-999.0,73,-99.99,,,-99.99,,2013-09-14 13:52:00,
2013-09-14 09:12:00,55.0,47.0,30.01,North,-999,0.0,-999.0,73,-99.99,,,-99.99,,2013-09-14 14:12:00,
2013-09-14 09:22:00,55.0,46.0,30.02,North,-999,0.0,-999.0,72,-99.99,,,-99.99,,2013-09-14 14:22:00,
2013-09-14 09:52:00,57.0,47.0,30.01,North,-999,0.0,-999.0,69,-99.99,,,-99.99,,2013-09-14 14:52:00,
2013-09-14 10:22:00,59.0,48.0,30.00,North,-999,0.0,-999.0,66,-99.99,,,-99.99,,2013-09-14 15:22:00,
2013-09-14 10:53:00,62.0,48.0,29.99,North,-999,0.0,-999.0,61,-99.99,,,-99.99,,2013-09-14 15:53:00,
2013-09-14 11:13:00,63.0,49.0,29.99,North,-999,0.0,-999.0,60,-99.99,,,-99.99,,2013-09-14 16:13:00,
2013-09-14 11:23:00,63.0,48.0,29.98,North,-999,0.0,-999.0,58,-99.99,,,-99.99,,2013-09-14 16:23:00,
2013-09-14 11:54:00,65.0,48.0,29.98,North,-999,0.0,-999.0,55,-99.99,,,-99.99,,2013-09-14 16:54:00,
2013-09-14 12:11:00,65.0,49.0,29.97,North,-999,0.0,-999.0,56,-99.99,,,-99.99,,2013-09-14 17:11:00,
2013-09-14 12:23:00,66.0,49.0,29.97,North,-999,0.0,-999.0,55,-99.99,,,-99.99,,2013-09-14 17:23:00,
2013-09-14 12:54:00,67.0,50.0,29.96,North,-999,0.0,-999.0,55,-99.99,,,-99.99,,2013-09-14 17:54:00,
2013-09-14 13:12:00,68.0,51.0,29.95,North,-999,0.0,-999.0,54,-99.99,,,-99.99,,2013-09-14 18:12:00,
2013-09-14 13:22:00,68.0,50.0,29.95,North,-999,0.0,-999.0,53,-99.99,,,-99.99,,2013-09-14 18:22:00,
2013-09-14 13:52:00,69.0,51.0,29.93,North,-999,0.0,-999.0,52,-99.99,,,-99.99,,2013-09-14 18:52:00,
2013-09-14 14:11:00,69.0,51.0,29.93,North,-999,0.0,-999.0,52,-99.99,,,-99.99,,2013-09-14 19:11:00,
2013-09-14 14:22:00,69.0,51.0,29.93,North,-999,0.0,-999.0,53,-99.99,,,-99.99,,2013-09-14 19:22:00,
2013-09-14 14:52:00,69.0,49.0,29.92,North,-999,0.0,-999.0,49,-99.99,,,-99.99,,2013-09-14 19:52:00,
2013-09-14 15:12:00,69.0,50.0,29.91,North,-999,0.0,-999.0,51,-99.99,,,-99.99,,2013-09-14 20:12:00,
2013-09-14 15:22:00,69.0,51.0,29.91,North,-999,0.0,-999.0,52,-99.99,,,-99.99,,2013-09-14 20:22:00,
2013-09-14 15:52:00,69.0,52.0,29.90,North,-999,0.0,-999.0,54,-99.99,,,-99.99,,2013-09-14 20:52:00,
2013-09-14 16:11:00,68.0,50.0,29.90,North,-999,0.0,-999.0,53,-99.99,,,-99.99,,2013-09-14 21:11:00,
2013-09-14 16:22:00,68.0,52.0,29.90,North,-999,0.0,-999.0,56,-99.99,,,-99.99,,2013-09-14 21:22:00,
2013-09-14 16:44:00,67.0,54.0,29.89,North,-999,0.0,-999.0,62,-99.99,,,-99.99,,2013-09-14 21:44:00,
2013-09-14 16:54:00,66.0,55.0,29.89,North,-999,0.0,-999.0,68,-99.99,,,-99.99,,2013-09-14 21:54:00,
2013-09-14 17:13:00,66.0,54.0,29.88,North,-999,0.0,-999.0,65,-99.99,,,-99.99,,2013-09-14 22:13:00,
2013-09-14 17:24:00,65.0,55.0,29.89,North,-999,0.0,-999.0,71,-99.99,,,-99.99,,2013-09-14 22:24:00,
2013-09-14 17:42:00,64.0,56.0,29.88,North,-999,0.0,-999.0,76,-99.99,,,-99.99,,2013-09-14 22:42:00,
2013-09-14 17:53:00,62.0,56.0,29.86,North,-999,0.0,-999.0,80,-99.99,,,-99.99,,2013-09-14 22:53:00,
2013-09-14 18:11:00,61.0,56.0,29.87,North,-999,0.0,-999.0,83,-99.99,,,-99.99,,2013-09-14 23:11:00,
2013-09-14 18:23:00,61.0,55.0,29.86,North,-999,0.0,-999.0,82,-99.99,,,-99.99,,2013-09-14 23:23:00,
2013-09-14 18:53:00,60.0,54.0,29.87,North,-999,0.0,-999.0,82,-99.99,,,-99.99,,2013-09-14 23:53:00,
2013-09-14 19:12:00,60.0,55.0,29.86,North,-999,0.0,-999.0,85,-99.99,,,-99.99,,2013-09-15 00:12:00,
2013-09-14 19:22:00,60.0,55.0,29.88,North,-999,0.0,-999.0,84,-99.99,,,-99.99,,2013-09-15 00:22:00,
2013-09-14 19:42:00,59.0,55.0,29.89,North,-999,0.0,-999.0,86,-99.99,,,-99.99,,2013-09-15 00:42:00,
2013-09-14 19:53:00,59.0,55.0,29.89,North,-999,0.0,-999.0,87,-99.99,,,-99.99,,2013-09-15 00:53:00,
2013-09-14 20:11:00,58.0,54.0,29.90,North,-999,0.0,-999.0,87,-99.99,,,-99.99,,2013-09-15 01:11:00,
2013-09-14 20:22:00,58.0,54.0,29.89,North,-999,0.0,-999.0,88,-99.99,,,-99.99,,2013-09-15 01:22:00,
2013-09-14 20:42:00,57.0,54.0,29.90,North,-999,0.0,-999.0,89,-99.99,,,-99.99,,2013-09-15 01:42:00,
2013-09-14 20:52:00,56.0,53.0,29.89,North,-999,0.0,-999.0,90,-99.99,,,-99.99,,2013-09-15 01:52:00,
2013-09-14 21:02:00,56.0,53.0,29.89,North,-999,0.0,-999.0,90,-99.99,,,-99.99,,2013-09-15 02:02:00,
2013-09-14 21:12:00,56.0,53.0,29.89,North,-999,0.0,-999.0,90,-99.99,,,-99.99,,2013-09-15 02:12:00,
2013-09-14 21:22:00,56.0,53.0,29.90,North,-999,0.0,-999.0,91,-99.99,,,-99.99,,2013-09-15 02:22:00,
2013-09-14 21:42:00,56.0,54.0,29.90,North,-999,0.0,-999.0,92,-99.99,,,-99.99,,2013-09-15 02:42:00,
2013-09-14 21:52:00,56.0,54.0,29.90,North,-999,0.0,-999.0,92,-99.99,,,-99.99,,2013-09-15 02:52:00,
2013-09-14 22:11:00,56.0,54.0,29.89,North,-999,0.0,-999.0,92,-99.99,,,-99.99,,2013-09-15 03:11:00,
2013-09-14 22:22:00,56.0,54.0,29.89,North,-999,0.0,-999.0,92,-99.99,,,-99.99,,2013-09-15 03:22:00,
2013-09-14 22:55:00,56.0,54.0,29.88,North,-999,0.0,-999.0,92,-99.99,,,-99.99,,2013-09-15 03:55:00,
2013-09-14 23:02:00,-999.0,-99.9,29.88,North,-999,0.0,-999.0,-999,-99.99,,,-99.99,,2013-09-15 04:02:00,
2013-09-14 23:14:00,56.0,54.0,29.88,North,-999,0.0,-999.0,92,-99.99,,,-99.99,,2013-09-15 04:14:00,
2013-09-14 23:24:00,56.0,54.0,29.88,North,-999,0.0,-999.0,92,-99.99,,,-99.99,,2013-09-15 04:24:00,
2013-09-14 23:54:00,56.0,54.0,29.88,North,-999,0.0,-999.0,92,-99.99,,,-99.99,,2013-09-15 04:54:00,